Weather History for KAPN - May, 2014

Change the Weather History Date:

Thursday, May 29, 2014

  Actual Average Record
Temperature  
Mean Temperature 57 °F 57 °F  
Max Temperature 71 °F 69 °F 92 °F (2006)
Min Temperature 42 °F 44 °F 29 °F (1965)
Degree Days  
Heating Degree Days 8 9  
Month to date heating degree days 379 381  
Since 1 July heating degree days 9048 7940  
Cooling Degree Days 0 1  
Month to date cooling degree days 5 6  
Year to date cooling degree days 5 8  
Growing Degree Days 6 (Base 50)    
Moisture  
Dew Point 47 °F    
Average Humidity 74    
Maximum Humidity 100    
Minimum Humidity 47    
Precipitation  
Precipitation 0.00 in 0.09 in 1.70 in (1954)
Month to date precipitation 2.31 2.48  
Year to date precipitation 11.50 9.71  
Sea Level Pressure  
Sea Level Pressure 30.17 in    
Wind  
Wind Speed 4 mph (East)    
Max Wind Speed 13 mph    
Max Gust Speed 16 mph    
Visibility 8 miles    
Events Fog    
T = Trace of Precipitation, MM = Missing Value Source: NWS Daily Summary

Daily Weather History Graph

Daily Weather History Graph

Search for Another Location

Airport or City:

Trip Planner

Search our weather history database for the weather conditions in past years. The results will help you decide how hot, cold, wet, or windy it might be!

Date:

Astronomy

May. 29, 2014 Rise Set
Actual Time 5:52 AM EDT 9:11 PM EDT
Civil Twilight 5:16 AM EDT 9:47 PM EDT
Nautical Twilight 4:29 AM EDT 10:34 PM EDT
Astronomical Twilight 3:30 AM EDT 11:34 PM EDT
Moon 6:47 AM EDT (5/29) 9:58 PM EDT (5/29)
Length of Visible Light 16h 31m
Length of Day
15h 19m
New Moon, 1% of the Moon is Illuminated
May 29
New Moon
Jun 5
First Quarter
Jun 13
Full
Jun 19
Last Quarter
Jun 27
New

Hourly Weather History & Observations

Time (EDT) Temp. Windchill Dew Point Humidity Pressure Visibility Wind Dir Wind Speed Gust Speed Precip Events Conditions
12:54 AM 46.9 °F - 44.1 °F 90% 30.16 in 10.0 mi Calm Calm - N/A   Clear
1:54 AM 45.0 °F - 43.0 °F 93% 30.16 in 10.0 mi Calm Calm - N/A   Clear
2:54 AM 45.0 °F - 42.1 °F 90% 30.15 in 10.0 mi Calm Calm - N/A   Clear
3:54 AM 45.0 °F - 42.1 °F 90% 30.16 in 10.0 mi Calm Calm - N/A   Clear
4:48 AM 42.8 °F - 41.0 °F 93% 30.16 in 1.8 mi Calm Calm - N/A   Partly Cloudy
4:51 AM 42.8 °F - 41.0 °F 93% 30.16 in 0.8 mi Calm Calm - N/A   Mist
4:54 AM 43.0 °F - 41.0 °F 93% 30.17 in 0.5 mi Calm Calm - N/A Fog Fog
5:04 AM 45.0 °F 43.5 °F 43.0 °F 93% 30.16 in 1.0 mi ENE 3.5 mph - N/A   Clear
5:07 AM 45.0 °F 43.5 °F 44.1 °F 97% 30.16 in 3.0 mi NE 3.5 mph - N/A   Clear
5:54 AM 45.0 °F - 44.1 °F 97% 30.17 in 10.0 mi Calm Calm - N/A   Clear
6:54 AM 46.0 °F 44.8 °F 45.0 °F 96% 30.19 in 10.0 mi NNE 3.5 mph - N/A   Clear
7:54 AM 51.1 °F - 48.0 °F 89% 30.20 in 10.0 mi Calm Calm - N/A   Clear
8:54 AM 57.0 °F - 48.9 °F 74% 30.21 in 10.0 mi Variable 3.5 mph - N/A   Clear
9:54 AM 61.0 °F - 48.9 °F 64% 30.22 in 10.0 mi Calm Calm - N/A   Clear
10:54 AM 64.9 °F - 50.0 °F 58% 30.22 in 10.0 mi Calm Calm - N/A   Clear
11:54 AM 69.1 °F - 51.1 °F 53% 30.22 in 10.0 mi East 4.6 mph - N/A   Clear
12:54 PM 69.1 °F - 48.9 °F 49% 30.22 in 10.0 mi SSE 9.2 mph - N/A   Clear
1:54 PM 70.0 °F - 50.0 °F 49% 30.19 in 10.0 mi East 5.8 mph - N/A   Clear
2:54 PM 71.1 °F - 51.1 °F 49% 30.18 in 10.0 mi East 8.1 mph - N/A   Clear
3:54 PM 69.1 °F - 50.0 °F 51% 30.16 in 10.0 mi East 10.4 mph - N/A   Clear
4:54 PM 69.1 °F - 50.0 °F 51% 30.17 in 10.0 mi ESE 10.4 mph - N/A   Clear
5:54 PM 66.0 °F - 48.0 °F 52% 30.17 in 10.0 mi ESE 9.2 mph - N/A   Clear
6:54 PM 68.0 °F - 48.9 °F 50% 30.14 in 10.0 mi SE 9.2 mph - N/A   Clear
7:54 PM 64.0 °F - 48.9 °F 58% 30.14 in 10.0 mi ESE 6.9 mph - N/A   Clear
8:54 PM 60.1 °F - 51.1 °F 72% 30.15 in 10.0 mi Calm Calm - N/A   Clear
9:54 PM 57.0 °F - 51.1 °F 81% 30.16 in 10.0 mi Calm Calm - N/A   Clear
10:54 PM 53.1 °F - 50.0 °F 89% 30.16 in 10.0 mi SSE 3.5 mph - N/A   Clear
11:54 PM 52.0 °F - 48.9 °F 89% 30.17 in 10.0 mi Calm Calm - N/A   Clear